Location: UMBC
(39.2555°N, 76.7093°W)
Time: 22:06:51
(UTC+02:00)

Amateur Radio Satellites - All Passes

Search period start: 28 May 2016 21:36
Search period end: 29 May 2016 21:36
Location: UMBC, 39.2555°N, 76.7093°W

Satellite Date Start Highest point End Downlink Frequencies (MHz)
Time Altitude Azimuth
AO-85 28 May 21:45:03 21:49:32 54° 244° (WSW) 21:53:37 145.980
ITAMSAT 1 28 May 21:48:57 21:53:44 38° 262° (W) 21:58:34 435.822/435.867
KKS-1 28 May 21:52:40 21:55:26 16° 93° (E) 21:58:12 437.445
MOZHAYETS 4 28 May 22:14:02 22:17:41 22° 94° (E) 22:21:19
HORYU 2 28 May 22:15:45 22:19:20 25° 68° (ENE) 22:22:54 437.375
SWISSCUBE 28 May 22:19:03 22:23:10 29° 292° (WNW) 22:27:16 437.505
STARS 28 May 22:25:33 22:28:38 19° 94° (E) 22:31:41 437.465
ITUPSAT 1 28 May 22:25:46 22:29:50 28° 292° (WNW) 22:33:54 437.325
NOAA 15 28 May 22:41:12 22:42:05 10° 58° (ENE) 22:42:57 137.62
BEESAT 28 May 22:49:32 22:52:34 17° 296° (WNW) 22:55:35 436.000
NOAA 18 28 May 22:54:11 22:56:31 13° 59° (ENE) 22:58:50 137.9125
BRITE-PL 28 May 22:57:03 22:59:16 12° 60° (ENE) 23:01:27 437.365/2234.400
RS-15 28 May 23:06:21 23:17:07 54° 111° (ESE) 23:28:27 29.354- 29.394
YUBILEINY 28 May 23:21:34 23:30:06 60° 281° (W) 23:38:43 435.215
Cosmos 2491 28 May 23:25:07 23:31:53 26° 278° (W) 23:38:37 435.465 / 435.565
KKS-1 28 May 23:28:00 23:32:12 42° 288° (WNW) 23:36:21 437.445
AO-7 28 May 23:29:46 23:36:14 25° 266° (W) 23:42:46 29.400- 29.500
CUTE-I 28 May 23:31:53 23:35:51 22° 64° (ENE) 23:39:50 437.470
CUBESAT XI-V 28 May 23:42:02 23:45:42 22° 94° (E) 23:49:19 437.345
Cosmos 2504 28 May 23:45:43 23:52:43 58° 91° (E) 00:00:07 435.465 / 435.565
MOZHAYETS 4 28 May 23:50:43 23:54:53 34° 289° (WNW) 23:59:02
HORYU 2 28 May 23:51:56 23:55:45 28° 263° (W) 23:59:36 437.375
STARS 29 May 00:01:06 00:05:05 36° 290° (WNW) 00:09:04 437.465
DOVE 4 29 May 00:02:20 00:02:44 10° 61° (ENE) 00:03:07 437.250
PCSat 29 May 00:07:09 00:11:27 23° 49° (NE) 00:15:43 145.827
NOAA 15 29 May 00:15:40 00:20:58 81° 75° (ENE) 00:26:19 137.62
Cubesat XI-IV 29 May 00:24:17 00:29:32 66° 73° (ENE) 00:34:48 437.490
LilacSat-2 29 May 00:27:00 00:30:44 59° 76° (ENE) 00:34:28 437.200
NOAA 18 29 May 00:30:56 00:36:23 87° 254° (WSW) 00:41:53 137.9125
BRITE-PL 29 May 00:31:11 00:36:49 84° 76° (ENE) 00:42:33 437.365/2234.400
GOMX 1 29 May 00:50:46 00:56:12 65° 74° (ENE) 01:01:31 467.674
O/OREOS (USA 219) 29 May 01:04:27 01:08:28 31° 62° (ENE) 01:12:27 437.305
CUTE-I 29 May 01:10:28 01:15:33 46° 261° (W) 01:20:40 437.470
RS-15 29 May 01:18:50 01:29:44 48° 314° (NW) 01:41:17 29.354- 29.394
CUBESAT XI-V 29 May 01:18:51 01:23:08 35° 289° (WNW) 01:27:23 437.345
STRAND 1 29 May 01:25:54 01:29:44 21° 94° (E) 01:33:32 437.568
YUBILEINY 29 May 01:27:53 01:28:59 10° 304° (WNW) 01:30:06 435.215
DOVE 4 29 May 01:34:25 01:39:40 83° 77° (ENE) 01:44:43 437.250
BEESAT 2 29 May 01:36:58 01:38:34 12° 43° (NE) 01:40:08 435.950
CANX-2 29 May 01:38:02 01:41:30 26° 69° (ENE) 01:45:00 2200.000
HO-68 29 May 01:39:03 01:45:42 44° 66° (ENE) 01:52:24 435.675
SEEDS 29 May 01:39:23 01:42:04 17° 67° (ENE) 01:44:46 437.485
Cosmos 2504 29 May 01:40:55 01:46:37 24° 292° (WNW) 01:52:36 435.465 / 435.565
AUBIESAT-1 29 May 01:48:20 01:52:19 51° 70° (ENE) 01:56:03 437.475
PCSat 29 May 01:49:53 01:55:09 53° 247° (WSW) 02:00:23 145.827
M-CUBED/EXP-1 PRIME 29 May 01:55:48 02:00:01 81° 71° (ENE) 02:03:55 437.505
CINEMA 3 29 May 01:57:43 02:02:12 43° 73° (ENE) 02:06:30 145.822/145.860
NOAA 15 29 May 01:59:38 02:01:19 11° 271° (W) 02:03:00 137.62
CUTE 1.7 + AOD 2 29 May 02:04:27 02:08:26 44° 73° (ENE) 02:12:28 437.475
Cubesat XI-IV 29 May 02:07:13 02:10:02 14° 269° (W) 02:12:53 437.490
BEESAT 3 29 May 02:08:00 02:11:40 36° 53° (NE) 02:15:19 437.485
BRITE-PL 29 May 02:13:31 02:15:52 13° 272° (W) 02:18:15 437.365/2234.400
Oscar 11 29 May 02:16:43 02:17:18 10° 62° (ENE) 02:17:53 145.826/435.025
COMPASS 1 29 May 02:22:06 02:25:53 35° 72° (ENE) 02:29:41 437.405
AAUSAT CUBESAT 2 29 May 02:23:43 02:27:18 29° 71° (ENE) 02:30:55 437.432
PRISM 29 May 02:28:18 02:30:16 13° 92° (E) 02:32:12 437.425
GOMX 1 29 May 02:31:20 02:34:36 16° 269° (W) 02:37:51 467.674
ZACube-1 29 May 02:31:40 02:33:41 13° 65° (ENE) 02:35:41 437.345
AIST 1 29 May 02:32:25 02:35:07 16° 86° (E) 02:37:49
CUBEBUG 2 29 May 02:39:59 02:44:00 36° 72° (ENE) 02:47:55 437.445
O/OREOS (USA 219) 29 May 02:44:11 02:47:40 23° 258° (WSW) 02:51:09 437.305
PHONESAT 2.4 29 May 02:57:20 02:59:00 14° 147° (SSE) 03:00:40 2401.200-2431.200
STRAND 1 29 May 03:04:12 03:09:05 44° 289° (WNW) 03:13:56 437.568
UWE-3 29 May 03:05:55 03:10:04 49° 74° (ENE) 03:14:07 435.000/436.395/437.385
FUNcube-1 29 May 03:07:10 03:10:52 30° 71° (ENE) 03:14:32 145.935
BEESAT 2 29 May 03:12:55 03:16:55 76° 239° (WSW) 03:20:52 435.950
SEEDS 29 May 03:13:34 03:17:27 38° 262° (W) 03:21:23 437.485
CANX-2 29 May 03:13:50 03:17:17 24° 265° (W) 03:20:45 2200.000
DOVE 4 29 May 03:16:40 03:17:48 11° 271° (W) 03:18:57 437.250
GONETS M04 29 May 03:16:46 03:24:17 33° 84° (E) 03:31:44
ISS 29 May 03:20:21 03:23:35 72° 140° (SE) 03:26:51 145.825
AUBIESAT-1 29 May 03:25:31 03:26:58 12° 262° (W) 03:28:23 437.475
HO-68 29 May 03:27:09 03:33:29 34° 263° (W) 03:39:52 435.675
CINEMA 3 29 May 03:36:19 03:39:28 18° 267° (W) 03:42:33 145.822/145.860
RS-15 29 May 03:38:01 03:46:24 21° 346° (NNW) 03:55:02 29.354- 29.394
CUTE 1.7 + AOD 2 29 May 03:42:18 03:44:30 14° 268° (W) 03:46:44 437.475
BEESAT 3 29 May 03:46:24 03:49:05 18° 249° (WSW) 03:51:46 437.485
Oscar 11 29 May 03:48:32 03:52:49 71° 259° (W) 03:57:07 145.826/435.025
AIST 2 29 May 03:55:04 03:58:13 20° 48° (NE) 04:01:21 435.215
COMPASS 1 29 May 03:58:50 04:01:34 17° 267° (W) 04:04:18 437.405
AAUSAT CUBESAT 2 29 May 03:59:43 04:02:48 20° 266° (W) 04:05:55 437.432
PRISM 29 May 04:01:49 04:05:50 47° 287° (WNW) 04:09:48 437.425
HUMSAT D 29 May 04:03:20 04:06:58 32° 71° (ENE) 04:10:37 437.325/437.525
ZACube-1 29 May 04:05:26 04:09:33 50° 260° (W) 04:13:37 437.345
AIST 1 29 May 04:08:13 04:12:20 39° 282° (WNW) 04:16:30
Cosmos 2499 29 May 04:16:53 04:23:38 44° 88° (E) 04:30:50 435.465 / 435.565
CUBEBUG 2 29 May 04:17:44 04:20:43 18° 266° (W) 04:23:39 437.445
DELFI C3 29 May 04:18:24 04:22:20 67° 259° (W) 04:26:19 145.870
ANTELSAT 29 May 04:29:39 04:32:18 16° 93° (E) 04:34:58 437.575/2403.000
PHONESAT 2.4 29 May 04:32:14 04:35:20 59° 161° (SSE) 04:38:26 2401.200-2431.200
CUSAT 1 29 May 04:38:53 04:46:21 52° 74° (ENE) 04:52:28 437.405
DANDE 29 May 04:43:28 04:50:55 34° 69° (ENE) 04:57:41 436.750
FUNcube-1 29 May 04:44:01 04:47:08 20° 266° (W) 04:50:14 145.935
UWE-3 29 May 04:44:47 04:46:45 13° 268° (W) 04:48:44 435.000/436.395/437.385
AISAT 29 May 04:57:01 05:00:10 19° 66° (ENE) 05:03:18 437.250
ISS 29 May 04:57:58 05:00:20 18° 337° (NNW) 05:02:44 145.825
UKube-1 29 May 04:59:22 05:01:15 13° 63° (ENE) 05:03:10 .
GONETS M04 29 May 05:12:10 05:20:40 52° 283° (WNW) 05:29:11
UNISAT 6 29 May 05:23:44 05:28:02 66° 101° (ESE) 05:32:23 437.425
TIGRISAT 29 May 05:30:49 05:35:08 75° 103° (ESE) 05:39:30 435.000
AIST 2 29 May 05:32:58 05:36:50 39° 245° (WSW) 05:40:41 435.215
ESTCUBE 1 29 May 05:38:59 05:43:28 75° 75° (ENE) 05:48:01 437.505/2401.250
HUMSAT D 29 May 05:39:53 05:42:40 18° 266° (W) 05:45:29 437.325/437.525
CUBEBUG 1 29 May 05:45:08 05:49:30 60° 74° (ENE) 05:53:53 437.445
DX 1 29 May 05:45:49 05:50:03 50° 73° (ENE) 05:54:18 434.975-435.025
DUCHIFAT 1 29 May 05:49:28 05:52:26 19° 94° (E) 05:55:23 145.980
VELOX 1 29 May 05:55:31 05:59:58 77° 76° (ENE) 06:04:26 145.980
RS-15 29 May 05:55:41 06:05:06 25° 23° (NNE) 06:14:36 29.354- 29.394
BUGSAT 1 29 May 06:03:38 06:04:52 11° 91° (E) 06:06:07 437.445
ANTELSAT 29 May 06:05:07 06:09:11 42° 288° (WNW) 06:13:18 437.575/2403.000
SPROUT 29 May 06:06:29 06:10:27 38° 72° (ENE) 06:14:26 437.525
PHONESAT 2.4 29 May 06:08:58 06:12:05 67° 357° (N) 06:15:12 2401.200-2431.200
Cosmos 2499 29 May 06:10:28 06:16:53 33° 289° (WNW) 06:23:44 435.465 / 435.565
50 SAT 29 May 06:11:42 06:15:14 52° 260° (W) 06:18:49 437.505
CUSAT 1 29 May 06:21:47 06:27:52 28° 276° (W) 06:33:05 437.405
DANDE 29 May 06:26:00 06:34:07 54° 269° (W) 06:41:15 436.750
TISAT 1 29 May 06:26:56 06:29:47 18° 67° (ENE) 06:32:39 437.305
POPSAT HIP 1 29 May 06:28:15 06:32:25 59° 101° (E) 06:36:33 437.405
QB50P1 29 May 06:28:31 06:32:40 61° 100° (E) 06:36:48 145.935-145.965
SO-50 29 May 06:30:49 06:35:42 75° 120° (ESE) 06:40:37 436.795
QB50P2 29 May 06:31:17 06:35:28 70° 101° (E) 06:39:40 145.880/145.840
AISAT 29 May 06:32:09 06:36:20 39° 261° (W) 06:40:33 437.250
UKube-1 29 May 06:32:31 06:36:47 58° 259° (WSW) 06:41:05 .
POLYITAN 1 29 May 06:33:44 06:37:57 72° 102° (ESE) 06:42:07 437.675
JAS-2 29 May 06:38:31 06:43:10 18° 87° (E) 06:47:30 435.910
NANOSAT C BR1 29 May 06:46:09 06:50:21 86° 288° (WNW) 06:54:32 145.865
UNISAT 6 29 May 07:02:57 07:04:12 11° 297° (WNW) 07:05:28 437.425
DX 1 29 May 07:24:17 07:26:30 14° 268° (W) 07:28:44 434.975-435.025
DUCHIFAT 1 29 May 07:24:27 07:28:12 33° 289° (WNW) 07:31:55 145.980
CUBEBUG 1 29 May 07:24:35 07:26:08 12° 269° (W) 07:27:42 437.445
BUGSAT 1 29 May 07:36:38 07:40:33 50° 286° (WNW) 07:44:25 437.445
Oscar 19 29 May 07:39:17 07:43:12 22° 94° (E) 07:47:05 437.125/150
YUBILEINY 29 May 07:39:51 07:42:46 12° 58° (ENE) 07:45:41 435.215
SPROUT 29 May 07:43:41 07:46:32 17° 267° (W) 07:49:22 437.525
PHONESAT 2.4 29 May 07:45:46 07:48:54 79° 195° (SSW) 07:52:02 2401.200-2431.200
SWISSCUBE 29 May 07:46:50 07:50:55 29° 68° (ENE) 07:55:01 437.505
ITUPSAT 1 29 May 07:53:42 07:57:50 30° 69° (ENE) 08:02:00 437.325
TISAT 1 29 May 08:01:15 08:05:10 37° 262° (W) 08:09:05 437.305
POPSAT HIP 1 29 May 08:06:12 08:07:40 12° 297° (WNW) 08:09:08 437.405
QB50P1 29 May 08:06:34 08:07:55 11° 297° (WNW) 08:09:16 145.935-145.965
RS-15 29 May 08:08:37 08:20:51 62° 52° (NE) 08:32:59 29.354- 29.394
QB50P2 29 May 08:10:30 08:10:41 10° 298° (WNW) 08:10:52 145.880/145.840
Gurwin Techsat 1B 29 May 08:13:20 08:17:08 19° 93° (E) 08:20:53 435.225
ISS 29 May 08:13:30 08:15:25 15° 18° (NNE) 08:17:20 145.825
SO-50 29 May 08:13:32 08:16:45 17° 318° (NW) 08:19:55 436.795
BEESAT 29 May 08:15:46 08:20:22 52° 72° (ENE) 08:25:00 436.000
JAS-2 29 May 08:21:38 08:29:03 76° 287° (WNW) 08:35:36 435.910
Cosmos 2491 29 May 08:36:19 08:39:50 13° 75° (ENE) 08:43:21 435.465 / 435.565
KKS-1 29 May 08:50:24 08:52:48 14° 64° (ENE) 08:55:13 437.445
MOZHAYETS 4 29 May 09:15:23 09:18:37 19° 66° (ENE) 09:21:52
Oscar 19 29 May 09:17:50 09:22:40 42° 290° (WNW) 09:27:28 437.125/150
STARS 29 May 09:21:49 09:24:28 16° 65° (ENE) 09:27:07 437.465
PHONESAT 2.4 29 May 09:22:59 09:25:22 20° 210° (SSW) 09:27:44 2401.200-2431.200
SWISSCUBE 29 May 09:24:37 09:28:38 27° 264° (W) 09:32:42 437.505
ITUPSAT 1 29 May 09:31:40 09:35:38 26° 264° (W) 09:39:39 437.325
YUBILEINY 29 May 09:32:44 09:41:27 66° 80° (E) 09:50:10 435.215
AO-7 29 May 09:38:40 09:44:56 23° 94° (E) 09:51:07 29.400- 29.500
Cosmos 2504 29 May 09:39:05 09:45:19 22° 67° (ENE) 09:51:42 435.465 / 435.565
ISS 29 May 09:49:07 09:52:22 65° 37° (NE) 09:55:36 145.825
Gurwin Techsat 1B 29 May 09:52:12 09:57:19 49° 289° (WNW) 10:02:25 435.225
BEESAT 29 May 09:55:43 09:58:26 15° 268° (W) 10:01:11 436.000
ITAMSAT 1 29 May 10:02:15 10:07:30 81° 103° (ESE) 10:12:44 435.822/435.867
JAS-2 29 May 10:08:59 10:12:40 15° 307° (NW) 10:16:11 435.910
RS-15 29 May 10:21:48 10:32:49 41° 254° (WSW) 10:43:46 29.354- 29.394
KKS-1 29 May 10:24:32 10:28:54 53° 259° (W) 10:33:18 437.445
Cosmos 2491 29 May 10:26:15 10:35:03 76° 94° (E) 10:43:52 435.465 / 435.565
CUBESAT XI-V 29 May 10:44:39 10:48:01 20° 66° (ENE) 10:51:24 437.345
MOZHAYETS 4 29 May 10:51:14 10:55:29 39° 262° (W) 10:59:47
STARS 29 May 10:56:12 11:00:26 47° 260° (W) 11:04:42 437.465
ISS 29 May 11:27:06 11:28:25 12° 231° (SW) 11:29:43 145.825
AO-7 29 May 11:30:00 11:38:21 74° 291° (WNW) 11:46:40 29.400- 29.500
YUBILEINY 29 May 11:30:47 11:37:28 25° 278° (W) 11:44:10 435.215
Cosmos 2504 29 May 11:31:00 11:39:31 80° 266° (W) 11:48:23 435.465 / 435.565
HORYU 2 29 May 11:43:04 11:47:26 55° 101° (E) 11:51:47 437.375
ITAMSAT 1 29 May 11:43:58 11:46:15 13° 300° (WNW) 11:48:32 435.822/435.867
AO-85 29 May 11:56:35 12:01:59 67° 118° (ESE) 12:07:19 145.980
CUBESAT XI-V 29 May 12:20:42 12:25:05 41° 262° (W) 12:29:32 437.345
Cosmos 2491 29 May 12:26:15 12:32:47 23° 294° (WNW) 12:39:23 435.465 / 435.565
NOAA 15 29 May 12:32:17 12:37:02 32° 97° (E) 12:41:43 137.62
BRITE-PL 29 May 12:38:31 12:42:52 29° 94° (E) 12:46:53 437.365/2234.400
STRAND 1 29 May 12:40:43 12:44:58 27° 67° (ENE) 12:49:14 437.568
Cubesat XI-IV 29 May 12:43:00 12:47:35 28° 96° (E) 12:52:09 437.490
NOAA 18 29 May 12:54:08 12:59:21 43° 99° (E) 13:04:33 137.9125
GOMX 1 29 May 12:55:34 12:58:41 18° 91° (E) 13:01:41 467.674
HORYU 2 29 May 13:21:14 13:23:31 14° 296° (WNW) 13:25:47 437.375
AO-7 29 May 13:24:58 13:29:43 17° 311° (NW) 13:34:28 29.400- 29.500
Cosmos 2504 29 May 13:27:28 13:31:35 14° 283° (WNW) 13:35:46 435.465 / 435.565
CUTE-I 29 May 13:28:11 13:33:34 77° 103° (ESE) 13:38:56 437.470
GONETS M04 29 May 13:29:20 13:33:40 14° 60° (ENE) 13:37:58
LilacSat-2 29 May 13:35:27 13:39:14 75° 283° (WNW) 13:43:01 437.200
DOVE 4 29 May 13:35:47 13:39:05 21° 93° (E) 13:42:17 437.250
AO-85 29 May 13:38:50 13:42:56 21° 315° (NW) 13:46:58 145.980
JUGNU 29 May 14:03:01 14:04:30 11° 182° (S) 14:06:00 437.505
Cosmos 2499 29 May 14:09:25 14:14:34 17° 63° (ENE) 14:19:47 435.465 / 435.565
NOAA 15 29 May 14:12:08 14:16:42 30° 293° (WNW) 14:21:14 137.62
AIST 1 29 May 14:16:08 14:20:17 42° 79° (ENE) 14:24:21
BRITE-PL 29 May 14:16:59 14:21:15 28° 293° (WNW) 14:25:15 437.365/2234.400
STRAND 1 29 May 14:19:24 14:23:59 34° 263° (W) 14:28:37 437.568
Cubesat XI-IV 29 May 14:22:50 14:27:39 35° 292° (WNW) 14:32:28 437.490
GOMX 1 29 May 14:32:43 14:36:59 38° 289° (WNW) 14:41:00 467.674
NOAA 18 29 May 14:35:22 14:39:44 25° 296° (WNW) 14:44:06 137.9125
PCSat 29 May 14:48:19 14:52:29 23° 106° (ESE) 14:56:39 145.827
PRISM 29 May 14:49:38 14:53:47 79° 258° (WSW) 14:57:58 437.425
HO-68 29 May 14:54:52 15:01:50 51° 101° (E) 15:08:46 435.675
SEEDS 29 May 14:58:16 15:02:11 35° 97° (E) 15:06:06 437.485
CANX-2 29 May 14:58:51 15:03:06 59° 100° (E) 15:07:20 2200.000
AUBIESAT-1 29 May 15:02:31 15:05:38 37° 104° (ESE) 15:08:46 437.475
SO-50 29 May 15:03:36 15:08:10 48° 54° (NE) 15:12:34 436.795
CUTE-I 29 May 15:10:13 15:12:56 14° 299° (WNW) 15:15:40 437.470
M-CUBED/EXP-1 PRIME 29 May 15:10:41 15:13:56 65° 107° (ESE) 15:17:12 437.505
DOVE 4 29 May 15:13:05 15:16:50 29° 291° (WNW) 15:20:27 437.250
O/OREOS (USA 219) 29 May 15:15:19 15:19:39 45° 106° (ESE) 15:23:58 437.305
GONETS M04 29 May 15:23:20 15:32:04 77° 81° (E) 15:40:45
CUTE 1.7 + AOD 2 29 May 15:25:45 15:30:03 77° 284° (WNW) 15:34:20 437.475
ANTELSAT 29 May 15:28:36 15:30:36 13° 64° (ENE) 15:32:35 437.575/2403.000
CINEMA 3 29 May 15:30:18 15:34:25 64° 285° (WNW) 15:38:32 145.822/145.860
Oscar 11 29 May 15:37:21 15:40:45 22° 94° (E) 15:44:09 145.826/435.025
COMPASS 1 29 May 15:40:53 15:45:08 81° 103° (ESE) 15:49:20 437.405
AAUSAT CUBESAT 2 29 May 15:41:41 15:45:52 65° 100° (E) 15:50:01 437.432
ZACube-1 29 May 15:54:41 15:58:25 30° 97° (E) 16:02:11 437.345
AIST 1 29 May 15:55:07 15:57:26 14° 275° (W) 15:59:45
DELFI C3 29 May 15:58:09 16:00:45 16° 93° (E) 16:03:20 145.870
SRMSAT 29 May 15:59:48 16:01:17 11° 180° (S) 16:02:46 437.500
Cosmos 2499 29 May 16:00:16 16:08:59 82° 83° (E) 16:17:53 435.465 / 435.565
CUBEBUG 2 29 May 16:07:42 16:11:52 82° 282° (WNW) 16:16:07 437.445
UNISAT 6 29 May 16:21:28 16:25:41 50° 73° (ENE) 16:29:51 437.425
TIGRISAT 29 May 16:28:20 16:32:35 56° 74° (ENE) 16:36:48 435.000
PCSat 29 May 16:30:19 16:35:31 47° 303° (WNW) 16:40:46 145.827
FUNcube-1 29 May 16:31:24 16:35:37 78° 102° (ESE) 16:39:54 145.935
UWE-3 29 May 16:32:30 16:36:38 62° 285° (WNW) 16:40:51 435.000/436.395/437.385
SEEDS 29 May 16:34:39 16:37:37 19° 293° (WNW) 16:40:36 437.485
CANX-2 29 May 16:36:44 16:38:26 12° 296° (WNW) 16:40:08 2200.000
AUBIESAT-1 29 May 16:38:54 16:39:50 11° 299° (WNW) 16:40:45 437.475
DUCHIFAT 1 29 May 16:41:32 16:43:31 13° 64° (ENE) 16:45:30 145.980
HO-68 29 May 16:43:09 16:49:13 31° 298° (WNW) 16:55:17 435.675
SO-50 29 May 16:45:09 16:48:13 18° 251° (WSW) 16:51:13 436.795
O/OREOS (USA 219) 29 May 16:56:07 16:59:16 18° 303° (WNW) 17:02:25 437.305
ANTELSAT 29 May 17:02:35 17:06:51 55° 259° (W) 17:11:05 437.575/2403.000
BEESAT 2 29 May 17:04:29 17:07:38 23° 112° (ESE) 17:10:49 435.950
Oscar 11 29 May 17:13:05 17:16:53 30° 290° (WNW) 17:20:41 145.826/435.025
POPSAT HIP 1 29 May 17:19:38 17:23:33 38° 72° (ENE) 17:27:28 437.405
AAUSAT CUBESAT 2 29 May 17:19:45 17:20:46 11° 297° (WNW) 17:21:49 437.432
QB50P1 29 May 17:19:49 17:23:45 39° 72° (ENE) 17:27:41 145.935-145.965
GONETS M04 29 May 17:21:57 17:27:51 21° 280° (W) 17:33:46
HUMSAT D 29 May 17:22:31 17:26:42 74° 101° (E) 17:30:54 437.325/437.525
QB50P2 29 May 17:22:41 17:26:43 44° 73° (ENE) 17:30:45 145.880/145.840
POLYITAN 1 29 May 17:25:09 17:29:11 45° 73° (ENE) 17:33:14 437.675
ZACube-1 29 May 17:31:21 17:34:32 21° 291° (WNW) 17:37:46 437.345
DELFI C3 29 May 17:32:02 17:35:42 35° 288° (WNW) 17:39:23 145.870
ESTCUBE 1 29 May 17:33:39 17:36:40 17° 93° (E) 17:39:38 437.505/2401.250
BEESAT 3 29 May 17:34:39 17:38:34 85° 296° (WNW) 17:42:33 437.485
NANOSAT C BR1 29 May 17:36:55 17:41:03 59° 75° (ENE) 17:45:13 145.865
CUBEBUG 1 29 May 17:37:03 17:38:37 12° 91° (E) 17:40:10 437.445
CUSAT 1 29 May 17:37:55 17:44:07 55° 92° (E) 17:51:36 437.405
50 SAT 29 May 17:43:23 17:45:17 13° 93° (E) 17:47:11 437.505
VELOX 1 29 May 17:48:04 17:50:43 16° 92° (E) 17:53:21 145.980
DANDE 29 May 17:50:24 17:55:15 30° 84° (E) 18:01:15 436.750
Cosmos 2499 29 May 17:55:13 18:01:06 21° 280° (W) 18:07:03 435.465 / 435.565
UNISAT 6 29 May 18:00:36 18:02:39 13° 268° (W) 18:04:42 437.425
TIGRISAT 29 May 18:08:06 18:09:36 12° 269° (W) 18:11:05 435.000
DUCHIFAT 1 29 May 18:14:39 18:18:46 52° 260° (W) 18:22:53 145.980
UKube-1 29 May 18:21:10 18:24:40 24° 96° (E) 18:28:08 .
AISAT 29 May 18:23:12 18:27:22 40° 99° (E) 18:31:30 437.250
BUGSAT 1 29 May 18:24:39 18:28:52 88° 259° (WSW) 18:33:03 437.445
JAS-2 29 May 18:30:28 18:37:30 48° 68° (ENE) 18:44:56 435.910
BEESAT 2 29 May 18:41:50 18:45:20 29° 309° (NW) 18:48:52 435.950
Oscar 19 29 May 18:54:54 18:59:21 29° 67° (ENE) 19:03:48 437.125/150
POPSAT HIP 1 29 May 18:56:43 18:59:28 17° 267° (W) 19:02:12 437.405
QB50P1 29 May 18:56:59 18:59:40 16° 267° (W) 19:02:21 145.935-145.965
QB50P2 29 May 19:00:25 19:02:44 14° 268° (W) 19:05:02 145.880/145.840
POLYITAN 1 29 May 19:02:59 19:05:13 14° 268° (W) 19:07:26 437.675
ESTCUBE 1 29 May 19:09:20 19:13:39 42° 288° (WNW) 19:17:54 437.505/2401.250
DX 1 29 May 19:10:55 19:15:16 73° 284° (WNW) 19:19:34 434.975-435.025
CUBEBUG 1 29 May 19:10:57 19:15:15 57° 286° (WNW) 19:19:29 437.445
50 SAT 29 May 19:15:42 19:19:08 36° 288° (WNW) 19:22:34 437.505
NANOSAT C BR1 29 May 19:16:12 19:17:08 11° 269° (W) 19:18:05 145.865
CUSAT 1 29 May 19:21:02 19:26:42 29° 294° (WNW) 19:33:14 437.405
VELOX 1 29 May 19:23:11 19:27:23 44° 288° (WNW) 19:31:34 145.980
SPROUT 29 May 19:28:54 19:33:11 87° 103° (ESE) 19:37:25 437.525
AIST 2 29 May 19:28:59 19:32:59 53° 117° (ESE) 19:37:01 435.215
DANDE 29 May 19:32:24 19:37:45 41° 289° (WNW) 19:44:35 436.750
Gurwin Techsat 1B 29 May 19:33:13 19:37:42 29° 67° (ENE) 19:42:12 435.225
ITAMSAT 1 29 May 19:43:01 19:45:32 14° 61° (ENE) 19:48:04 435.822/435.867
TISAT 1 29 May 19:46:03 19:49:51 33° 97° (E) 19:53:37 437.305
UKube-1 29 May 19:56:59 20:00:40 28° 291° (WNW) 20:04:20 .
AISAT 29 May 20:00:32 20:03:31 18° 295° (WNW) 20:06:29 437.250
JAS-2 29 May 20:15:56 20:22:34 36° 266° (W) 20:29:37 435.910
BEESAT 29 May 20:18:23 20:20:59 14° 92° (E) 20:23:35 436.000
AO-85 29 May 20:30:20 20:34:44 39° 52° (NE) 20:38:44 145.980
Oscar 19 29 May 20:33:56 20:38:33 32° 263° (W) 20:43:12 437.125/150
AO-7 29 May 20:36:40 20:43:35 31° 58° (ENE) 20:50:32 29.400- 29.500
Cosmos 2491 29 May 20:38:29 20:46:21 36° 72° (ENE) 20:54:07 435.465 / 435.565
YUBILEINY 29 May 20:41:43 20:45:18 13° 75° (ENE) 20:48:52 435.215
AIST 2 29 May 21:09:07 21:11:47 16° 315° (NW) 21:14:27 435.215
Gurwin Techsat 1B 29 May 21:12:43 21:17:30 34° 263° (W) 21:22:20 435.225
ITAMSAT 1 29 May 21:19:11 21:24:21 75° 258° (WSW) 21:29:33 435.822/435.867
TISAT 1 29 May 21:22:20 21:25:15 19° 293° (WNW) 21:28:11 437.305
SWISSCUBE 29 May 21:24:48 21:29:38 81° 103° (ESE) 21:34:26 437.505
